Asyut, Egypt

9:11 PM EET on March 25, 2017 (GMT +0200)
Asyut

Weather History for HEAT - October, 2013

Change the Weather History Date:

Wednesday, October 2, 2013

  Actual Average Record
Temperature  
Mean Temperature 80 °F -  
Max Temperature 99 °F 86 °F - ()
Min Temperature 61 °F 60 °F - ()
Cooling Degree Days 15    
Growing Degree Days 30 (Base 50)    
Moisture  
Dew Point 48 °F    
Average Humidity 33    
Maximum Humidity 56    
Minimum Humidity 11    
Precipitation  
Precipitation 0.00 in 0.00 in - ()
Sea Level Pressure  
Sea Level Pressure 29.84 in    
Wind  
Wind Speed 1 mph ()    
Max Wind Speed 5 mph    
Max Gust Speed -    
Visibility 6.0 miles    
Events      
T = Trace of Precipitation, MM = Missing Value Source: Averaged Metar Reports

Daily Weather History Graph

Daily Weather History Graph

Search for Another Location

Airport or City:

Trip Planner

Search our weather history database for the weather conditions in past years. The results will help you decide how hot, cold, wet, or windy it might be!

Date:

Astronomy

Oct. 02, 2013 Rise Set
Actual Time 5:48 AM EET 5:41 PM EET
Civil Twilight 5:25 AM EET 6:04 PM EET
Nautical Twilight 4:58 AM EET 6:31 PM EET
Astronomical Twilight 4:31 AM EET 6:58 PM EET
Moon 3:14 AM EET (10/2) 3:56 PM EET (10/2)
Length of Visible Light 12h 38m
Length of Day
11h 52m
Waning Crescent, 7% of the Moon is Illuminated
Oct 2
Waning Crescent
Oct 5
New
Oct 12
First Quarter
Oct 19
Full
Oct 27
Last Quarter

Hourly Weather History & Observations

Time (EET) Temp. Dew Point Humidity Pressure Visibility Wind Dir Wind Speed Gust Speed Precip Events Conditions
12:00 AM 69.8 °F 51.8 °F 53% 29.86 in - Calm Calm - N/A   Clear
1:00 AM 69.8 °F 51.8 °F 53% 29.86 in - Calm Calm - N/A   Clear
2:00 AM 66 °F 46 °F 38% 29.83 in 6 mi Calm Calm - -  
2:00 AM 66.2 °F 46.4 °F 49% 29.83 in - Calm Calm - N/A   Clear
3:00 AM 64.4 °F 46.4 °F 52% 29.83 in - Calm Calm - N/A   Clear
4:00 AM 64.4 °F 48.2 °F 56% 29.83 in - WNW 2.3 mph - N/A   Clear
5:00 AM 64.4 °F 44.6 °F 49% 29.83 in - Calm Calm - N/A   Clear
6:00 AM 62.6 °F 44.6 °F 52% 29.83 in - Calm Calm - N/A   Clear
7:00 AM 64.4 °F 44.6 °F 49% 29.86 in - Calm Calm - N/A   Clear
8:00 AM 71 °F 46 °F 30% 29.86 in 6 mi South 1.2 mph - -  
8:00 AM 71.6 °F 46.4 °F 41% 29.86 in - South 1.2 mph - N/A   Clear
9:00 AM 75.2 °F 46.4 °F 36% 29.89 in - SSE 2.3 mph - N/A   Clear
10:00 AM 84.2 °F 51.8 °F 33% 29.89 in - SSE 2.3 mph - N/A   Clear
11:00 AM 89.6 °F 50.0 °F 26% 29.89 in - South 2.3 mph - N/A   Clear
12:00 PM 91.4 °F 50.0 °F 24% 29.86 in - SW 2.3 mph - N/A   Clear
1:00 PM 95.0 °F 46.4 °F 19% 29.83 in - SW 2.3 mph - N/A   Clear
2:00 PM 96 °F 48 °F 11% 29.78 in 6 mi WSW 3.5 mph - -  
2:00 PM 96.8 °F 48.2 °F 19% 29.83 in - WSW 3.5 mph - N/A   Clear
3:00 PM 98.6 °F 48.2 °F 18% 29.83 in - WNW 4.6 mph - N/A   Clear
4:00 PM 96.8 °F 46.4 °F 18% 29.80 in - West 2.3 mph - N/A   Clear
5:00 PM 96.8 °F 44.6 °F 17% 29.80 in - West 3.5 mph - N/A   Clear
6:00 PM 93.2 °F 44.6 °F 19% 29.83 in - NNE 2.3 mph - N/A   Clear
7:00 PM 89.6 °F 42.8 °F 20% 29.83 in - Calm Calm - N/A   Clear
8:00 PM 84 °F 49 °F 20% 29.80 in 6 mi Calm Calm - -  
8:00 PM 84.2 °F 50.0 °F 30% 29.83 in - Calm Calm - N/A   Clear
9:00 PM 82.4 °F 50.0 °F 32% 29.86 in - Calm Calm - N/A   Clear
10:00 PM 80.6 °F 51.8 °F 37% 29.86 in - Calm Calm - N/A   Clear
11:00 PM 75.2 °F 46.4 °F 36% 29.86 in - Calm Calm - N/A   Clear